[[{"header":{"parameterUnit":"m.s-1","parameterCategory":1,"la1":30.2991,"la2":30.254,"lo1":-89.0895,"lo2":-89.0444,"dy":0.0017,"dx":0.0017,"nx":28,"ny":28,"refTime":"2025-06-03T21:00:00:Z","depth":0,"parameterNumber":2,"parameterNumberName":"U-component_of_WINDS"},"data":[0,0,0,0,0,0,0,0,0,0,0,0,0,0,0,0,0,0,0,0,0,0,0,0,0,0,0,0,0,0,0,0,0,0,0,0,0,0,0,0,0,0,0,0,0,0,0,0,0,0,0,0,0,0,0,0,0,0,-6.0184,-6.0184,0,-6.0213,-6.0213,-6.0214,-6.0142,-6.014,-6.0137,-6.0135,-6.0164,-6.0166,-6.0169,0,0,0,0,0,0,0,0,0,0,0,0,0,-6.0066,-6.0069,-6.0184,-6.0184,-6.0185,-6.0213,-6.0213,-6.0214,-6.0142,-6.014,-6.0137,-6.0134,-6.0163,-6.0166,-6.0169,0,0,0,0,0,0,0,0,0,0,0,0,0,-6.0109,-6.007,-6.0184,-6.0152,-6.015,-6.0213,-6.0213,-6.0214,-6.0143,-6.0139,-6.0136,-6.0133,-6.0162,-6.0166,-6.017,-6.0264,0,0,-6.0183,-6.0185,0,0,0,0,0,0,0,0,-6.0106,-6.0113,-6.0157,-6.0155,-6.0152,-6.017,-6.0182,-6.0231,-6.0144,-6.0146,-6.0135,-6.0131,-6.0169,-6.0172,-6.0185,-6.0265,-6.0267,-6.0183,-6.0186,-6.0188,-6.0189,0,0,0,0,0,0,0,-6.0103,-6.0111,-6.0195,-6.0157,-6.0155,-6.0137,-6.0139,-6.0191,-6.0176,-6.0145,-6.014,-6.0144,-6.0167,-6.0181,-6.0185,-6.0267,-6.0183,-6.0187,-6.019,-6.0191,-6.0427,-6.0431,0,0,0,0,0,0,-6.0105,-6.0109,-6.0194,-6.0196,-6.012,-6.0142,-6.0144,-6.0168,-6.0175,-6.0173,-6.0147,-6.0141,-6.0175,-6.018,-6.0186,-6.0296,-6.0188,-6.0192,-6.0194,-6.0424,-6.0428,-6.0432,0,0,0,0,0,0,-6.0102,-6.0113,-6.0193,-6.0151,-6.016,-6.0147,-6.0174,-6.017,-6.0184,-6.0177,-6.0173,-6.0165,-6.0173,-6.018,-6.0245,-6.0296,-6.0194,-6.0198,-6.0419,-6.0425,-6.043,-6.0518,0,0,0,0,0,0,-6.0099,-6.0112,-6.0148,-6.0153,-6.0163,-6.0253,-6.0178,-6.0173,-6.0192,-6.0184,-6.0192,-6.019,-6.0171,-6.0239,-6.025,-6.03,-6.0201,-6.0415,-6.0422,-6.0428,-6.051,-6.0526,-6.0539,0,0,0,0,0,-6.0095,-6.0171,-6.015,-6.0161,-6.0207,-6.0256,-6.0261,-6.0238,-6.0197,-6.0232,-6.0227,-6.019,-6.029,-6.0247,-6.0258,-6.031,-6.0411,-6.042,-6.0428,-6.0504,-6.0523,-6.0539,0,0,0,0,0,0,-6.0171,-6.0171,-6.0148,-6.0227,-6.0242,-6.0243,-6.0287,-6.0258,-6.0285,-6.0276,-6.0245,-6.0248,-6.0319,-6.0322,-6.0274,-6.0402,-6.0343,-6.0354,-6.0397,-6.0415,-6.0429,-6.0426,-6.0205,0,0,0,0,0,-6.0198,-6.0237,-6.0235,-6.0305,-6.0314,-6.03,-6.032,-6.0301,-6.0315,-6.0321,-6.0321,-6.0335,-6.037,-6.0393,-6.0425,-6.0512,-6.0512,-6.0553,-6.0568,-6.0579,-6.0588,-6.0635,-6.0653,-6.0459,-6.0459,-6.0459,0,0,-6.0251,-6.0256,-6.0283,-6.0321,-6.033,-6.0372,-6.0305,-6.0352,-6.0383,-6.0327,-6.0389,-6.0391,-6.0405,-6.0482,-6.0516,-6.0486,-6.0643,-6.059,-6.0599,-6.0602,-6.0645,-6.0663,-6.068,-6.0465,-6.0464,-6.0463,0,0,-6.037,-6.0379,-6.0438,-6.045,-6.0465,-6.0455,-6.047,-6.0477,-6.0475,-6.0537,-6.0497,-6.0534,-6.0594,-6.0606,-6.062,-6.0747,-6.0714,-6.0759,-6.0832,-6.0878,-6.0893,-6.0906,-6.0951,-6.0967,-6.0768,-6.0769,-6.0769,0,-6.0435,-6.0496,-6.0472,-6.0522,-6.054,-6.0494,-6.0554,-6.0566,-6.0591,-6.0604,-6.0571,-6.0647,-6.0654,-6.0733,-6.0764,-6.0778,-6.0793,-6.0756,-6.0893,-6.0906,-6.0918,-6.096,-6.0977,-6.0774,-6.0773,-6.0773,-6.0772,0,-6.0575,-6.0619,-6.0665,-6.0691,-6.0714,-6.0769,-6.0754,-6.078,-6.0761,-6.0755,-6.0819,-6.0826,-6.0858,-6.0876,-6.0857,-6.0953,-6.0934,-6.0898,-6.0837,-6.0942,-6.0981,-6.0997,-6.0781,-6.0779,-6.0778,-6.0777,0,0,-6.0739,-6.0753,-6.0771,-6.0782,-6.0797,-6.083,-6.0884,-6.0917,-6.094,-6.096,-6.1003,-6.1057,-6.1024,-6.104,-6.1022,-6.1062,-6.1162,-6.1021,-6.1021,-6.1045,-6.1268,-6.1294,-6.1313,-6.1141,-6.1144,-6.1147,-6.1267,0,-6.0856,-6.0947,-6.0929,-6.1018,-6.1058,-6.1017,-6.1063,-6.1078,-6.1075,-6.1108,-6.1105,-6.1143,-6.1097,-6.1106,-6.1145,-6.1142,-6.1206,-6.1133,-6.1181,-6.1183,-6.1176,-6.1333,-6.136,-6.1473,-6.1282,-6.1284,-6.1286,0,-6.1003,-6.1029,-6.1123,-6.1133,-6.1149,-6.1192,-6.122,-6.1253,-6.127,-6.1265,-6.1285,-6.1259,-6.1313,-6.1255,-6.1328,-6.1279,-6.1297,-6.1299,-6.1303,-6.1304,-6.1239,-6.1337,-6.1508,-6.1525,-6.131,-6.1308,-6.1307,0,-6.1112,-6.1171,-6.1235,-6.1246,-6.126,-6.1291,-6.1298,-6.1311,-6.1332,-6.1358,-6.1371,-6.1403,-6.142,-6.1445,-6.1429,-6.1389,-6.1505,-6.1446,-6.1502,-6.1502,-6.1525,-6.1524,-6.17,-6.1542,-6.1542,-6.1541,-6.1541,0,-6.1242,-6.1301,-6.1284,-6.1323,-6.1388,-6.1367,-6.1432,-6.1434,-6.1447,-6.1485,-6.1453,-6.149,-6.1468,-6.1504,-6.1492,-6.1554,-6.1562,-6.1559,-6.1555,-6.1561,-6.1561,-6.1571,-6.1562,-6.1546,-6.1545,-6.1544,-6.1543,0,-6.1373,-6.1364,-6.1431,-6.1439,-6.1443,-6.1491,-6.1497,-6.1534,-6.153,-6.158,-6.159,-6.1583,-6.1624,-6.1612,-6.1656,-6.1648,-6.1726,-6.1713,-6.1721,-6.1716,-6.1773,-6.1767,-6.1959,-6.1983,-6.1812,-6.1813,-6.1815,0,-6.1456,-6.15,-6.1514,-6.1538,-6.1548,-6.1587,-6.1609,-6.1591,-6.1615,-6.1639,-6.1673,-6.1711,-6.1739,-6.1807,-6.1805,-6.1839,-6.1825,-6.189,-6.1829,-6.1834,-6.1824,-6.1821,-6.1825,-6.1901,-6.1903,-6.1905,-6.1906,0,-6.1603,-6.1597,-6.163,-6.1663,-6.169,-6.1715,-6.1736,-6.1758,-6.1741,-6.1771,-6.1812,-6.1835,-6.1881,-6.1918,-6.195,-6.1957,-6.1929,-6.1926,-6.1941,-6.1946,-6.1948,-6.1946,-6.1751,-6.1921,-6.1919,-6.1918,-6.1918,-6.1917,-6.1711,-6.1749,-6.1765,-6.1803,-6.1818,-6.184,-6.1874,-6.1876,-6.191,-6.1946,-6.1934,-6.1981,-6.1998,-6.2037,-6.2049,-6.2086,-6.2061,-6.2082,-6.2087,-6.2092,-6.2098,-6.1944,-6.2092,-6.2091,-6.2091,-6.2091,-6.209,0,-6.1855,-6.1864,-6.19,-6.1932,-6.1963,-6.1936,-6.1959,-6.1986,-6.2028,-6.2047,-6.2077,-6.2125,-6.2163,-6.2166,-6.2201,-6.223,-6.2218,-6.224,-6.2236,-6.2238,-6.2119,-6.2103,-6.2249,-6.2249,-6.2249,-6.2248,-6.2248,-6.2248,-6.1934,-6.1996,-6.1993,-6.2063,-6.2071,-6.2118,-6.2133,-6.2153,-6.2168,-6.2223,-6.2254,-6.2257,-6.2269,-6.2306,-6.2339,-6.2339,-6.2353,-6.2379,-6.2374,-6.2262,-6.2246,-6.2231,-6.2215,-6.2382,-6.2383,-6.2489,-6.249,-6.2491]},{"header":{"parameterUnit":"m.s-1","parameterCategory":1,"la1":30.2991,"la2":30.254,"lo1":-89.0895,"lo2":-89.0444,"dy":0.0017,"dx":0.0017,"nx":28,"ny":28,"refTime":"2025-06-03T21:00:00:Z","depth":0,"parameterNumber":3,"parameterNumberName":"V-component_of_WINDS"},"data":[0,0,0,0,0,0,0,0,0,0,0,0,0,0,0,0,0,0,0,0,0,0,0,0,0,0,0,0,0,0,0,0,0,0,0,0,0,0,0,0,0,0,0,0,0,0,0,0,0,0,0,0,0,0,0,0,0,0,2.1783,2.1783,0,2.1818,2.1818,2.1818,2.189,2.1892,2.1893,2.1895,2.1924,2.1924,2.1923,0,0,0,0,0,0,0,0,0,0,0,0,0,2.1774,2.1774,2.1783,2.1783,2.1784,2.1818,2.1818,2.1819,2.189,2.1892,2.1894,2.1895,2.1925,2.1924,2.1923,0,0,0,0,0,0,0,0,0,0,0,0,0,2.179,2.1774,2.1783,2.1824,2.1828,2.1818,2.1818,2.1819,2.189,2.1892,2.1894,2.1896,2.1925,2.1924,2.1923,2.1874,0,0,2.1921,2.192,0,0,0,0,0,0,0,0,2.1789,2.1791,2.1817,2.1821,2.1825,2.1852,2.1826,2.1837,2.1889,2.1866,2.1895,2.1897,2.1898,2.19,2.1901,2.1876,2.1877,2.1921,2.192,2.192,2.1919,0,0,0,0,0,0,0,2.1788,2.1789,2.1797,2.1817,2.1822,2.1839,2.1844,2.1829,2.1869,2.1868,2.1873,2.1877,2.1901,2.1902,2.1902,2.1877,2.1921,2.192,2.1919,2.1919,2.1815,2.1813,0,0,0,0,0,0,2.1782,2.1788,2.1795,2.1798,2.1813,2.1837,2.1843,2.1841,2.187,2.1876,2.1875,2.188,2.1902,2.1903,2.1904,2.1849,2.192,2.1919,2.1918,2.1817,2.1814,2.1812,0,0,0,0,0,0,2.1781,2.1782,2.1794,2.1794,2.1797,2.1835,2.1833,2.1841,2.1842,2.1875,2.1882,2.1869,2.1904,2.1905,2.1882,2.1851,2.1919,2.1918,2.182,2.1816,2.1813,2.1739,0,0,0,0,0,0,2.1781,2.1781,2.1764,2.1794,2.1797,2.1772,2.1831,2.184,2.1841,2.1848,2.1871,2.1877,2.1906,2.1883,2.1881,2.1851,2.1917,2.1823,2.1818,2.1814,2.1744,2.1734,2.1724,0,0,0,0,0,2.178,2.174,2.1763,2.1763,2.1776,2.1771,2.1772,2.1808,2.1838,2.1821,2.1842,2.1876,2.1855,2.188,2.1878,2.1848,2.1825,2.182,2.1815,2.1749,2.1736,2.1725,0,0,0,0,0,0,2.1703,2.1745,2.177,2.1738,2.1751,2.1783,2.1761,2.1793,2.1795,2.1801,2.1844,2.1848,2.182,2.1832,2.1858,2.1803,2.1846,2.184,2.1796,2.1784,2.1774,2.1771,2.1916,0,0,0,0,0,2.1683,2.1676,2.1712,2.1681,2.1686,2.1723,2.1721,2.1748,2.1762,2.1767,2.1786,2.1797,2.1793,2.1789,2.1787,2.1747,2.1753,2.1726,2.1716,2.1707,2.1701,2.1682,2.167,2.1795,2.1795,2.1796,0,0,2.164,2.1662,2.1655,2.1666,2.1679,2.167,2.1726,2.1714,2.1708,2.1764,2.1744,2.1759,2.1774,2.1742,2.1729,2.1751,2.1669,2.1701,2.1694,2.1693,2.1675,2.1664,2.1653,2.1792,2.1793,2.1793,0,0,2.1558,2.1574,2.155,2.1562,2.1582,2.1607,2.1601,2.1629,2.1642,2.1623,2.1666,2.1658,2.165,2.1659,2.1662,2.1586,2.1617,2.1584,2.1531,2.1511,2.1501,2.1493,2.1466,2.1455,2.1578,2.1578,2.1578,0,2.1501,2.1492,2.1533,2.1519,2.1523,2.1577,2.1552,2.1562,2.1578,2.1579,2.1604,2.1597,2.161,2.1582,2.1564,2.1565,2.1559,2.1581,2.15,2.1492,2.1484,2.1459,2.1448,2.1574,2.1574,2.1575,2.1575,0,2.1422,2.1414,2.1392,2.141,2.1411,2.1392,2.143,2.1426,2.1453,2.1475,2.1455,2.1474,2.1477,2.1473,2.1498,2.1448,2.1462,2.1493,2.1536,2.1468,2.1444,2.1435,2.1568,2.1569,2.1571,2.1572,0,0,2.129,2.1333,2.1324,2.1334,2.136,2.1354,2.1337,2.1343,2.1339,2.1349,2.1336,2.1329,2.1358,2.1362,2.1389,2.1372,2.1311,2.1406,2.1407,2.1387,2.1257,2.1234,2.1222,2.1332,2.1331,2.1329,2.1256,0,2.1214,2.1189,2.1227,2.1193,2.1187,2.1239,2.1224,2.1238,2.1258,2.1255,2.1277,2.1272,2.1311,2.1314,2.13,2.1321,2.1285,2.1327,2.1319,2.1318,2.1314,2.121,2.1184,2.1114,2.1247,2.1246,2.1245,0,2.1121,2.1129,2.1095,2.1125,2.1124,2.111,2.1119,2.1116,2.1132,2.1149,2.1154,2.1187,2.1172,2.1215,2.1194,2.1222,2.1221,2.1232,2.123,2.123,2.1277,2.1206,2.1092,2.1082,2.1231,2.1232,2.1233,0,2.1028,2.1031,2.1012,2.1018,2.1052,2.1041,2.1055,2.1074,2.1076,2.1083,2.1084,2.1088,2.109,2.1093,2.1126,2.1154,2.1101,2.1147,2.1113,2.1112,2.1099,2.1099,2.0983,2.1099,2.1099,2.1099,2.1099,0,2.0939,2.0916,2.0971,2.0959,2.0935,2.0978,2.0953,2.0972,2.0989,2.098,2.1025,2.1016,2.106,2.1056,2.1081,2.1061,2.1061,2.1073,2.108,2.1069,2.1067,2.1068,2.1074,2.1097,2.1097,2.1098,2.1098,0,2.0831,2.0867,2.0849,2.0884,2.0893,2.0873,2.0903,2.0892,2.0917,2.0906,2.0905,2.0943,2.094,2.0974,2.0976,2.0994,2.0961,2.0977,2.0956,2.0961,2.0925,2.0928,2.0805,2.0791,2.0916,2.0915,2.0914,0,2.0771,2.0755,2.0789,2.0788,2.08,2.0797,2.08,2.0842,2.0842,2.0861,2.0849,2.085,2.0853,2.0846,2.0873,2.0875,2.0891,2.0848,2.0892,2.0881,2.089,2.0891,2.0889,2.0838,2.0837,2.0835,2.0834,0,2.0661,2.068,2.0683,2.0692,2.0694,2.0703,2.0714,2.071,2.0757,2.0755,2.0754,2.0756,2.0761,2.0761,2.077,2.0782,2.0815,2.0821,2.0813,2.0801,2.079,2.0796,2.093,2.0823,2.0824,2.0825,2.0826,2.0826,2.0576,2.0565,2.0587,2.0589,2.0603,2.0613,2.0605,2.063,2.063,2.0639,2.0663,2.0658,2.0676,2.0691,2.0701,2.0697,2.0718,2.0706,2.0703,2.07,2.0694,2.0791,2.0698,2.0699,2.0699,2.0699,2.07,0,2.0468,2.0486,2.0487,2.0503,2.0504,2.0538,2.0553,2.0551,2.0547,2.0562,2.0565,2.0564,2.0565,2.0593,2.0597,2.0588,2.0604,2.0588,2.0589,2.0591,2.0675,2.0681,2.0576,2.0576,2.0576,2.0576,2.0576,2.0576,2.0412,2.0396,2.0418,2.0408,2.0426,2.0422,2.0428,2.0437,2.045,2.0447,2.045,2.0468,2.0488,2.0495,2.0497,2.0505,2.0504,2.0483,2.0496,2.0573,2.0585,2.0597,2.0603,2.0483,2.0483,2.0413,2.0413,2.0412]}]]